Retour au catalogue

STARLINK-36547

ActifCommunicationsVLEO
NORAD 67520·PAYLOAD·🇺🇸 United States

Lancé Jan 18, 2026 depuis Cape Canaveral Space Force Station

Loading…

Prochains Passages (prochaines 24 heures)

TLE

FraisSource: CelesTrak SupGP

Époque: Sep 15, 2026, 02:33 UTC

1 67520C 26012AD  26258.10673611  .00048623  00000+0  17610-2 0  2586
2 67520  43.0031 324.4263 0001430 268.0774  86.5852 15.27556989    11

Suivez STARLINK-36547 en temps réel avec AllMySat

Download on the App Store